Time,TemperatureF,DewpointF,PressureIn,WindDirection,WindDirectionDegrees,WindSpeedMPH,WindSpeedGustMPH,Humidity,HourlyPrecipIn,Conditions,Clouds,dailyrainin,SoftwareType,DateUTC
2013-03-23 00:02:00,17.5,13.8,29.93,East,86,8.1,8.1,85,0.00,CLR,,0.00,WeatherDisplay:10.37,2013-03-23 06:02:00,
2013-03-23 00:07:00,17.3,13.6,29.93,East,88,6.9,6.9,85,0.00,CLR,,0.00,WeatherDisplay:10.37,2013-03-23 06:07:00,
2013-03-23 00:12:00,17.2,13.5,29.93,ESE,104,5.8,5.8,85,0.00,CLR,,0.00,WeatherDisplay:10.37,2013-03-23 06:12:00,
2013-03-23 00:17:00,17.2,13.5,29.93,East,81,6.9,6.9,85,0.00,CLR,,0.00,WeatherDisplay:10.37,2013-03-23 06:17:00,
2013-03-23 00:22:00,17.0,13.3,29.93,East,86,10.4,10.4,85,0.00,CLR,,0.00,WeatherDisplay:10.37,2013-03-23 06:22:00,
2013-03-23 00:27:00,16.9,12.9,29.93,East,91,8.1,8.1,84,0.00,CLR,,0.00,WeatherDisplay:10.37,2013-03-23 06:27:00,
2013-03-23 00:32:00,16.9,13.2,29.91,East,91,10.4,10.4,85,0.00,CLR,,0.00,WeatherDisplay:10.37,2013-03-23 06:32:00,
2013-03-23 00:37:00,16.9,13.2,29.91,East,84,8.0,8.0,85,0.00,CLR,,0.00,WeatherDisplay:10.37,2013-03-23 06:37:00,
2013-03-23 00:42:00,16.9,13.2,29.91,East,98,4.6,4.6,85,0.00,CLR,,0.00,WeatherDisplay:10.37,2013-03-23 06:42:00,
2013-03-23 00:47:00,16.7,12.7,29.91,East,91,11.0,11.0,84,0.00,CLR,,0.00,WeatherDisplay:10.37,2013-03-23 06:47:00,
2013-03-23 00:52:00,16.7,12.7,29.91,East,101,6.0,6.0,84,0.00,CLR,,0.00,WeatherDisplay:10.37,2013-03-23 06:52:00,
2013-03-23 00:57:00,16.5,12.5,29.91,East,83,8.1,8.1,84,0.00,CLR,,0.00,WeatherDisplay:10.37,2013-03-23 06:57:00,
2013-03-23 01:02:00,16.5,12.5,29.91,ESE,107,6.0,6.0,84,0.00,CLR,,0.00,WeatherDisplay:10.37,2013-03-23 07:02:00,
2013-03-23 01:07:00,16.5,12.5,29.91,East,84,4.6,4.6,84,0.00,CLR,,0.00,WeatherDisplay:10.37,2013-03-23 07:07:00,
2013-03-23 01:12:00,16.5,12.5,29.91,East,100,5.8,5.8,84,0.00,CLR,,0.00,WeatherDisplay:10.37,2013-03-23 07:12:00,
2013-03-23 01:17:00,16.5,12.8,29.91,ENE,77,6.0,6.0,85,0.00,CLR,,0.00,WeatherDisplay:10.37,2013-03-23 07:17:00,
2013-03-23 01:22:00,16.7,12.7,29.91,ENE,63,7.0,7.0,84,0.00,CLR,,0.00,WeatherDisplay:10.37,2013-03-23 07:22:00,
2013-03-23 01:27:00,16.5,12.5,29.91,East,86,8.1,8.1,84,0.00,CLR,,0.00,WeatherDisplay:10.37,2013-03-23 07:27:00,
2013-03-23 01:32:00,16.4,12.4,29.90,East,87,11.5,11.5,84,0.00,CLR,,0.00,WeatherDisplay:10.37,2013-03-23 07:32:00,
2013-03-23 01:37:00,16.1,12.1,29.90,East,93,11.5,11.5,84,0.00,CLR,,0.00,WeatherDisplay:10.37,2013-03-23 07:37:00,
2013-03-23 01:42:00,15.7,11.5,29.90,ENE,72,11.5,11.5,83,0.00,CLR,,0.00,WeatherDisplay:10.37,2013-03-23 07:42:00,
2013-03-23 01:47:00,15.4,11.2,29.92,East,97,11.5,11.5,83,0.00,CLR,,0.00,WeatherDisplay:10.37,2013-03-23 07:47:00,
2013-03-23 01:52:00,15.2,11.0,29.92,East,86,10.4,10.4,83,0.00,CLR,,0.00,WeatherDisplay:10.37,2013-03-23 07:52:00,
2013-03-23 01:57:00,15.1,10.9,29.92,East,91,11.5,11.5,83,0.00,CLR,,0.00,WeatherDisplay:10.37,2013-03-23 07:57:00,
2013-03-23 02:02:00,14.8,10.6,29.92,East,83,11.5,11.5,83,0.00,CLR,,0.00,WeatherDisplay:10.37,2013-03-23 08:02:00,
2013-03-23 02:07:00,14.6,10.4,29.92,East,90,12.7,12.7,83,0.00,CLR,,0.00,WeatherDisplay:10.37,2013-03-23 08:07:00,
2013-03-23 02:12:00,14.4,10.2,29.92,East,93,11.5,11.5,83,0.00,CLR,,0.00,WeatherDisplay:10.37,2013-03-23 08:12:00,
2013-03-23 02:17:00,14.4,10.2,30.00,East,80,10.4,10.4,83,0.00,CLR,,0.00,WeatherDisplay:10.37,2013-03-23 08:17:00,
2013-03-23 02:22:00,14.3,10.1,30.00,East,94,11.5,11.5,83,0.00,CLR,,0.00,WeatherDisplay:10.37,2013-03-23 08:22:00,
2013-03-23 02:27:00,14.3,10.1,30.00,East,79,11.5,11.5,83,0.00,CLR,,0.00,WeatherDisplay:10.37,2013-03-23 08:27:00,
2013-03-23 02:32:00,14.3,10.1,30.00,East,90,11.5,11.5,83,0.00,CLR,,0.00,WeatherDisplay:10.37,2013-03-23 08:32:00,
2013-03-23 02:37:00,14.1,9.9,30.00,East,81,11.5,11.5,83,0.00,CLR,,0.00,WeatherDisplay:10.37,2013-03-23 08:37:00,
2013-03-23 02:42:00,14.1,9.9,30.00,ESE,103,7.0,7.0,83,0.00,CLR,,0.00,WeatherDisplay:10.37,2013-03-23 08:42:00,
2013-03-23 02:47:00,14.1,9.9,30.01,East,79,4.6,4.6,83,0.00,CLR,,0.00,WeatherDisplay:10.37,2013-03-23 08:47:00,
2013-03-23 02:52:00,14.1,9.9,30.01,East,98,10.4,10.4,83,0.00,CLR,,0.00,WeatherDisplay:10.37,2013-03-23 08:52:00,
2013-03-23 02:57:00,14.0,9.8,30.01,East,97,5.8,5.8,83,0.00,CLR,,0.00,WeatherDisplay:10.37,2013-03-23 08:57:00,
2013-03-23 03:02:00,14.0,9.8,30.02,ESE,114,2.3,2.3,83,0.00,CLR,,0.00,WeatherDisplay:10.37,2013-03-23 09:02:00,
2013-03-23 03:07:00,14.0,9.8,30.02,East,94,5.8,5.8,83,0.00,CLR,,0.00,WeatherDisplay:10.37,2013-03-23 09:07:00,
2013-03-23 03:12:00,14.0,9.8,30.02,East,100,10.4,10.4,83,0.00,CLR,,0.00,WeatherDisplay:10.37,2013-03-23 09:12:00,
2013-03-23 03:17:00,14.0,9.8,30.03,East,101,6.0,6.0,83,0.00,CLR,,0.00,WeatherDisplay:10.37,2013-03-23 09:17:00,
2013-03-23 03:22:00,14.0,9.8,30.03,ESE,107,2.3,2.3,83,0.00,CLR,,0.00,WeatherDisplay:10.37,2013-03-23 09:22:00,
2013-03-23 03:27:00,14.0,9.8,30.03,East,101,2.3,2.3,83,0.00,CLR,,0.00,WeatherDisplay:10.37,2013-03-23 09:27:00,
2013-03-23 03:32:00,13.8,9.6,30.03,East,101,2.3,0.0,83,0.00,CLR,,0.00,WeatherDisplay:10.37,2013-03-23 09:32:00,
2013-03-23 03:37:00,14.0,9.8,30.03,East,101,0.0,0.0,83,0.00,CLR,,0.00,WeatherDisplay:10.37,2013-03-23 09:37:00,
2013-03-23 03:42:00,13.8,9.6,30.03,East,101,3.5,3.5,83,0.00,CLR,,0.00,WeatherDisplay:10.37,2013-03-23 09:42:00,
2013-03-23 03:47:00,13.8,9.6,30.02,East,101,2.3,2.3,83,0.00,CLR,,0.00,WeatherDisplay:10.37,2013-03-23 09:47:00,
2013-03-23 03:52:00,13.8,9.6,30.02,East,101,1.2,1.2,83,0.00,CLR,,0.00,WeatherDisplay:10.37,2013-03-23 09:52:00,
2013-03-23 03:57:00,13.8,9.6,30.02,East,101,2.3,2.3,83,0.00,CLR,,0.00,WeatherDisplay:10.37,2013-03-23 09:57:00,
2013-03-23 04:02:00,14.0,9.8,30.03,East,101,2.3,2.3,83,0.00,CLR,,0.00,WeatherDisplay:10.37,2013-03-23 10:02:00,
2013-03-23 04:07:00,14.0,9.8,30.03,East,101,2.3,2.3,83,0.00,CLR,,0.00,WeatherDisplay:10.37,2013-03-23 10:07:00,
2013-03-23 04:12:00,14.0,9.8,30.03,NE,55,3.0,3.0,83,0.00,CLR,,0.00,WeatherDisplay:10.37,2013-03-23 10:12:00,
2013-03-23 04:17:00,14.1,9.9,30.05,NNE,28,4.6,4.6,83,0.00,CLR,,0.00,WeatherDisplay:10.37,2013-03-23 10:17:00,
2013-03-23 04:22:00,14.0,9.8,30.05,North,1,7.0,7.0,83,0.00,CLR,,0.00,WeatherDisplay:10.37,2013-03-23 10:22:00,
2013-03-23 04:27:00,13.8,9.6,30.05,NNE,25,8.1,8.1,83,0.00,CLR,,0.00,WeatherDisplay:10.37,2013-03-23 10:27:00,
2013-03-23 04:32:00,13.6,9.4,30.04,NNE,29,6.9,6.9,83,0.00,CLR,,0.00,WeatherDisplay:10.37,2013-03-23 10:32:00,
2013-03-23 04:37:00,13.6,9.4,30.04,NNE,31,6.9,6.9,83,0.00,CLR,,0.00,WeatherDisplay:10.37,2013-03-23 10:37:00,
2013-03-23 04:43:00,13.5,9.3,30.04,NNE,18,5.8,5.8,83,0.00,CLR,,0.00,WeatherDisplay:10.37,2013-03-23 10:43:00,
2013-03-23 04:48:00,13.5,9.3,30.05,NE,38,5.8,5.8,83,0.00,CLR,,0.00,WeatherDisplay:10.37,2013-03-23 10:48:00,
2013-03-23 04:53:00,13.5,9.3,30.05,NNE,33,6.9,6.9,83,0.00,CLR,,0.00,WeatherDisplay:10.37,2013-03-23 10:53:00,
2013-03-23 04:58:00,13.5,9.3,30.05,NE,49,5.8,5.8,83,0.00,CLR,,0.00,WeatherDisplay:10.37,2013-03-23 10:58:00,
2013-03-23 05:03:00,13.5,9.3,30.05,NE,53,4.6,4.6,83,0.00,CLR,,0.00,WeatherDisplay:10.37,2013-03-23 11:03:00,
2013-03-23 05:08:00,13.5,9.3,30.05,ENE,57,5.0,5.0,83,0.00,CLR,,0.00,WeatherDisplay:10.37,2013-03-23 11:08:00,
2013-03-23 05:13:00,13.5,9.3,30.05,NE,42,6.9,6.9,83,0.00,CLR,,0.00,WeatherDisplay:10.37,2013-03-23 11:13:00,
2013-03-23 05:18:00,13.5,9.3,30.05,NE,55,5.0,5.0,83,0.00,CLR,,0.00,WeatherDisplay:10.37,2013-03-23 11:18:00,
2013-03-23 05:23:00,13.5,9.3,30.05,NE,55,2.3,2.3,83,0.00,CLR,,0.00,WeatherDisplay:10.37,2013-03-23 11:23:00,
2013-03-23 05:28:00,13.5,9.3,30.05,NE,53,2.3,2.3,83,0.00,CLR,,0.00,WeatherDisplay:10.37,2013-03-23 11:28:00,
2013-03-23 05:33:00,13.5,9.3,30.05,NE,50,2.3,2.3,83,0.00,CLR,,0.00,WeatherDisplay:10.37,2013-03-23 11:33:00,
2013-03-23 05:38:00,13.5,9.3,30.05,NE,50,1.2,1.2,83,0.00,CLR,,0.00,WeatherDisplay:10.37,2013-03-23 11:38:00,
2013-03-23 05:43:00,13.5,9.3,30.05,NE,50,1.2,1.2,83,0.00,CLR,,0.00,WeatherDisplay:10.37,2013-03-23 11:43:00,
2013-03-23 05:48:00,13.5,9.3,30.06,NE,50,2.3,2.3,83,0.00,CLR,,0.00,WeatherDisplay:10.37,2013-03-23 11:48:00,
2013-03-23 05:53:00,13.3,9.1,30.06,ENE,74,3.5,3.5,83,0.00,CLR,,0.00,WeatherDisplay:10.37,2013-03-23 11:53:00,
2013-03-23 05:58:00,13.1,8.9,30.06,East,84,2.3,2.3,83,0.00,CLR,,0.00,WeatherDisplay:10.37,2013-03-23 11:58:00,
2013-03-23 06:03:00,13.1,8.9,30.06,East,84,2.3,2.3,83,0.00,CLR,,0.00,WeatherDisplay:10.37,2013-03-23 12:03:00,
2013-03-23 06:08:00,13.1,8.9,30.06,East,84,2.3,2.3,83,0.00,CLR,,0.00,WeatherDisplay:10.37,2013-03-23 12:08:00,
2013-03-23 06:13:00,12.9,8.7,30.06,East,96,2.3,2.3,83,0.00,CLR,,0.00,WeatherDisplay:10.37,2013-03-23 12:13:00,
2013-03-23 06:18:00,12.9,8.7,30.06,East,96,2.3,2.3,83,0.00,CLR,,0.00,WeatherDisplay:10.37,2013-03-23 12:18:00,
2013-03-23 06:23:00,12.8,8.6,30.06,East,96,1.2,1.2,83,0.00,CLR,,0.00,WeatherDisplay:10.37,2013-03-23 12:23:00,
2013-03-23 06:28:00,12.8,8.6,30.06,East,96,0.0,0.0,83,0.00,CLR,,0.00,WeatherDisplay:10.37,2013-03-23 12:28:00,
2013-03-23 06:33:00,12.8,8.6,30.06,East,96,2.3,2.3,83,0.00,CLR,,0.00,WeatherDisplay:10.37,2013-03-23 12:33:00,
2013-03-23 06:38:00,12.8,8.6,30.06,East,96,2.3,2.3,83,0.00,CLR,,0.00,WeatherDisplay:10.37,2013-03-23 12:38:00,
2013-03-23 06:43:00,12.8,8.6,30.06,East,97,2.3,2.3,83,0.00,CLR,,0.00,WeatherDisplay:10.37,2013-03-23 12:43:00,
2013-03-23 06:48:00,12.8,8.6,30.06,East,97,1.2,1.2,83,0.00,CLR,,0.00,WeatherDisplay:10.37,2013-03-23 12:48:00,
2013-03-23 06:53:00,12.8,8.6,30.06,East,97,2.0,2.0,83,0.00,CLR,,0.00,WeatherDisplay:10.37,2013-03-23 12:53:00,
2013-03-23 06:58:00,12.8,8.6,30.06,East,97,1.2,1.2,83,0.00,CLR,,0.00,WeatherDisplay:10.37,2013-03-23 12:58:00,
2013-03-23 07:03:00,12.8,8.6,30.06,East,97,3.5,3.5,83,0.00,CLR,,0.00,WeatherDisplay:10.37,2013-03-23 13:03:00,
2013-03-23 07:08:00,12.8,8.6,30.06,East,97,2.3,2.3,83,0.00,CLR,,0.00,WeatherDisplay:10.37,2013-03-23 13:08:00,
2013-03-23 07:13:00,12.8,8.6,30.06,East,80,7.0,7.0,83,0.00,CLR,,0.00,WeatherDisplay:10.37,2013-03-23 13:13:00,
2013-03-23 07:18:00,12.8,8.6,30.08,East,86,5.8,5.8,83,0.00,CLR,,0.00,WeatherDisplay:10.37,2013-03-23 13:18:00,
2013-03-23 07:23:00,12.8,8.6,30.08,East,94,6.9,6.9,83,0.00,CLR,,0.00,WeatherDisplay:10.37,2013-03-23 13:23:00,
2013-03-23 07:28:00,12.6,8.1,30.08,East,93,10.4,10.4,82,0.00,CLR,,0.00,WeatherDisplay:10.37,2013-03-23 13:28:00,
2013-03-23 07:33:00,12.4,8.0,30.09,East,86,8.1,8.1,82,0.00,CLR,,0.00,WeatherDisplay:10.37,2013-03-23 13:33:00,
2013-03-23 07:38:00,12.4,8.0,30.09,East,87,5.0,5.0,82,0.00,CLR,,0.00,WeatherDisplay:10.37,2013-03-23 13:38:00,
2013-03-23 07:43:00,12.3,7.9,30.09,ENE,76,5.0,5.0,82,0.00,CLR,,0.00,WeatherDisplay:10.37,2013-03-23 13:43:00,
2013-03-23 07:48:00,12.3,7.9,30.10,East,88,5.8,5.8,82,0.00,CLR,,0.00,WeatherDisplay:10.37,2013-03-23 13:48:00,
2013-03-23 07:53:00,12.1,7.7,30.10,East,93,6.9,6.9,82,0.00,CLR,,0.00,WeatherDisplay:10.37,2013-03-23 13:53:00,
2013-03-23 07:58:00,11.9,7.5,30.10,ESE,103,6.9,6.9,82,0.00,CLR,,0.00,WeatherDisplay:10.37,2013-03-23 13:58:00,
2013-03-23 08:03:00,11.9,7.5,30.10,East,84,7.0,7.0,82,0.00,CLR,,0.00,WeatherDisplay:10.37,2013-03-23 14:03:00,
2013-03-23 08:08:00,11.9,7.5,30.10,ENE,73,5.8,5.8,82,0.00,CLR,,0.00,WeatherDisplay:10.37,2013-03-23 14:08:00,
2013-03-23 08:13:00,11.9,7.5,30.10,East,90,5.8,5.8,82,0.00,CLR,,0.00,WeatherDisplay:10.37,2013-03-23 14:13:00,
2013-03-23 08:18:00,11.9,7.5,30.13,East,87,4.6,4.6,82,0.00,CLR,,0.00,WeatherDisplay:10.37,2013-03-23 14:18:00,
2013-03-23 08:23:00,12.1,7.7,30.13,NE,42,8.1,8.1,82,0.00,CLR,,0.00,WeatherDisplay:10.37,2013-03-23 14:23:00,
2013-03-23 08:28:00,12.1,7.4,30.13,ENE,60,5.8,5.8,81,0.00,CLR,,0.00,WeatherDisplay:10.37,2013-03-23 14:28:00,
2013-03-23 08:33:00,11.9,7.2,30.13,ENE,66,10.4,10.4,81,0.00,CLR,,0.00,WeatherDisplay:10.37,2013-03-23 14:33:00,
2013-03-23 08:38:00,11.9,7.2,30.13,East,87,3.5,3.5,81,0.00,CLR,,0.00,WeatherDisplay:10.37,2013-03-23 14:38:00,
2013-03-23 08:43:00,11.9,7.5,30.13,ENE,76,5.8,5.8,82,0.00,CLR,,0.00,WeatherDisplay:10.37,2013-03-23 14:43:00,
2013-03-23 08:48:00,12.1,7.4,30.13,East,88,3.5,3.5,81,0.00,CLR,,0.00,WeatherDisplay:10.37,2013-03-23 14:48:00,
2013-03-23 08:53:00,11.9,7.2,30.13,East,87,5.8,5.8,81,0.00,CLR,,0.00,WeatherDisplay:10.37,2013-03-23 14:53:00,
2013-03-23 08:58:00,11.7,7.0,30.13,East,79,4.6,4.6,81,0.00,CLR,,0.00,WeatherDisplay:10.37,2013-03-23 14:58:00,
2013-03-23 09:03:00,11.6,6.9,30.14,ESE,105,3.5,3.5,81,0.00,CLR,,0.00,WeatherDisplay:10.37,2013-03-23 15:03:00,
2013-03-23 09:08:00,11.6,6.9,30.14,ESE,103,3.5,3.5,81,0.00,CLR,,0.00,WeatherDisplay:10.37,2013-03-23 15:08:00,
2013-03-23 09:13:00,11.6,6.9,30.14,SE,128,3.5,3.5,81,0.00,CLR,,0.00,WeatherDisplay:10.37,2013-03-23 15:13:00,
2013-03-23 09:18:00,11.7,7.3,30.14,SE,128,2.3,2.3,82,0.00,CLR,,0.00,WeatherDisplay:10.37,2013-03-23 15:18:00,
2013-03-23 09:23:00,11.9,7.5,30.14,SE,128,2.3,2.3,82,0.00,CLR,,0.00,WeatherDisplay:10.37,2013-03-23 15:23:00,
2013-03-23 09:28:00,11.9,7.2,30.14,SE,128,3.0,3.0,81,0.00,CLR,,0.00,WeatherDisplay:10.37,2013-03-23 15:28:00,
2013-03-23 09:33:00,11.9,7.2,30.15,SE,128,2.3,2.3,81,0.00,CLR,,0.00,WeatherDisplay:10.37,2013-03-23 15:33:00,
2013-03-23 09:38:00,12.1,7.4,30.15,SE,128,2.3,2.3,81,0.00,CLR,,0.00,WeatherDisplay:10.37,2013-03-23 15:38:00,
2013-03-23 09:43:00,12.1,7.7,30.15,ESE,115,2.3,2.3,82,0.00,CLR,,0.00,WeatherDisplay:10.37,2013-03-23 15:43:00,
2013-03-23 09:48:00,12.1,7.4,30.15,ESE,118,2.3,2.3,81,0.00,CLR,,0.00,WeatherDisplay:10.37,2013-03-23 15:48:00,
2013-03-23 09:53:00,12.1,7.7,30.15,ESE,120,2.3,2.3,82,0.00,CLR,,0.00,WeatherDisplay:10.37,2013-03-23 15:53:00,
2013-03-23 09:58:00,12.3,7.9,30.15,ESE,105,3.5,3.5,82,0.00,CLR,,0.00,WeatherDisplay:10.37,2013-03-23 15:58:00,
2013-03-23 10:03:00,12.4,7.7,30.16,ESE,105,1.2,1.3,81,0.00,CLR,,0.00,WeatherDisplay:10.37,2013-03-23 16:03:00,
2013-03-23 10:08:00,12.6,8.1,30.16,ESE,105,3.5,3.5,82,0.00,CLR,,0.00,WeatherDisplay:10.37,2013-03-23 16:08:00,
2013-03-23 10:13:00,12.8,8.1,30.16,ENE,72,2.3,2.3,81,0.00,CLR,,0.00,WeatherDisplay:10.37,2013-03-23 16:13:00,
2013-03-23 10:18:00,12.9,8.4,30.18,ENE,69,3.5,3.5,82,0.00,CLR,,0.00,WeatherDisplay:10.37,2013-03-23 16:18:00,
2013-03-23 10:23:00,13.1,8.4,30.18,East,88,2.3,2.3,81,0.00,CLR,,0.00,WeatherDisplay:10.37,2013-03-23 16:23:00,
2013-03-23 10:28:00,13.1,8.4,30.18,East,88,3.0,3.0,81,0.00,CLR,,0.00,WeatherDisplay:10.37,2013-03-23 16:28:00,
2013-03-23 10:33:00,13.1,8.4,30.18,East,88,1.2,1.2,81,0.00,CLR,,0.00,WeatherDisplay:10.37,2013-03-23 16:33:00,
2013-03-23 10:38:00,13.1,8.4,30.18,East,88,1.2,1.2,81,0.00,CLR,,0.00,WeatherDisplay:10.37,2013-03-23 16:38:00,
2013-03-23 10:43:00,13.1,8.4,30.18,East,96,1.2,1.2,81,0.00,CLR,,0.00,WeatherDisplay:10.37,2013-03-23 16:43:00,
2013-03-23 10:48:00,13.3,8.8,30.18,East,96,0.0,0.0,82,0.00,CLR,,0.00,WeatherDisplay:10.37,2013-03-23 16:48:00,
2013-03-23 10:53:00,13.3,8.8,30.18,East,100,2.3,2.3,82,0.00,CLR,,0.00,WeatherDisplay:10.37,2013-03-23 16:53:00,
2013-03-23 10:59:00,13.3,8.6,30.18,ESE,122,2.3,2.3,81,0.00,CLR,,0.00,WeatherDisplay:10.37,2013-03-23 16:59:00,
2013-03-23 11:04:00,13.1,8.4,30.19,SE,141,2.3,2.3,81,0.00,CLR,,0.00,WeatherDisplay:10.37,2013-03-23 17:04:00,
2013-03-23 11:09:00,13.1,8.4,30.19,SE,139,3.0,3.0,81,0.00,CLR,,0.00,WeatherDisplay:10.37,2013-03-23 17:09:00,
2013-03-23 11:14:00,13.1,8.4,30.19,SE,139,3.5,3.5,81,0.00,CLR,,0.00,WeatherDisplay:10.37,2013-03-23 17:14:00,
2013-03-23 11:19:00,13.1,8.4,30.20,SSE,148,3.5,3.5,81,0.00,CLR,,0.00,WeatherDisplay:10.37,2013-03-23 17:19:00,
2013-03-23 11:24:00,13.1,8.4,30.20,SSE,149,2.3,2.3,81,0.00,CLR,,0.00,WeatherDisplay:10.37,2013-03-23 17:24:00,
2013-03-23 11:29:00,13.1,8.4,30.20,SSE,148,3.5,3.5,81,0.00,CLR,,0.00,WeatherDisplay:10.37,2013-03-23 17:29:00,
2013-03-23 11:34:00,13.3,8.6,30.20,SE,145,3.5,3.5,81,0.00,CLR,,0.00,WeatherDisplay:10.37,2013-03-23 17:34:00,
2013-03-23 11:39:00,13.5,9.0,30.20,SE,128,3.5,3.5,82,0.00,CLR,,0.00,WeatherDisplay:10.37,2013-03-23 17:39:00,
2013-03-23 11:44:00,13.6,8.9,30.20,ESE,108,4.6,4.6,81,0.00,CLR,,0.00,WeatherDisplay:10.37,2013-03-23 17:44:00,
2013-03-23 11:49:00,13.8,9.0,30.18,East,90,4.6,4.6,81,0.00,CLR,,0.00,WeatherDisplay:10.37,2013-03-23 17:49:00,
2013-03-23 11:54:00,14.0,9.2,30.18,ENE,66,5.8,5.8,81,0.00,CLR,,0.00,WeatherDisplay:10.37,2013-03-23 17:54:00,
2013-03-23 11:59:00,14.0,9.2,30.18,East,83,3.5,3.5,81,0.00,CLR,,0.00,WeatherDisplay:10.37,2013-03-23 17:59:00,
2013-03-23 12:04:00,14.0,9.0,30.18,East,98,4.6,4.6,80,0.00,CLR,,0.00,WeatherDisplay:10.37,2013-03-23 18:04:00,
2013-03-23 12:09:00,13.8,8.8,30.18,ESE,105,3.5,3.5,80,0.00,CLR,,0.00,WeatherDisplay:10.37,2013-03-23 18:09:00,
2013-03-23 12:14:00,14.0,9.2,30.18,SSE,148,2.3,2.3,81,0.00,CLR,,0.00,WeatherDisplay:10.37,2013-03-23 18:14:00,
2013-03-23 12:19:00,14.1,9.3,30.20,East,87,6.9,6.9,81,0.00,CLR,,0.00,WeatherDisplay:10.37,2013-03-23 18:19:00,
2013-03-23 12:24:00,14.1,9.1,30.20,East,81,6.9,6.9,80,0.00,CLR,,0.00,WeatherDisplay:10.37,2013-03-23 18:24:00,
2013-03-23 12:29:00,14.0,9.0,30.20,East,88,7.0,7.0,80,0.00,CLR,,0.00,WeatherDisplay:10.37,2013-03-23 18:29:00,
2013-03-23 12:34:00,14.1,9.3,30.20,East,88,7.0,7.0,81,0.00,CLR,,0.00,WeatherDisplay:10.37,2013-03-23 18:34:00,
2013-03-23 12:39:00,14.1,9.1,30.20,East,84,8.1,8.1,80,0.00,CLR,,0.00,WeatherDisplay:10.37,2013-03-23 18:39:00,
2013-03-23 12:44:00,14.0,9.0,30.20,East,84,10.4,10.4,80,0.00,CLR,,0.00,WeatherDisplay:10.37,2013-03-23 18:44:00,
2013-03-23 12:49:00,14.1,9.1,30.21,East,86,8.1,8.1,80,0.00,CLR,,0.00,WeatherDisplay:10.37,2013-03-23 18:49:00,
2013-03-23 12:54:00,14.1,9.1,30.21,East,91,7.0,7.0,80,0.00,CLR,,0.00,WeatherDisplay:10.37,2013-03-23 18:54:00,
2013-03-23 12:59:00,14.1,9.1,30.21,East,84,10.4,10.4,80,0.00,CLR,,0.00,WeatherDisplay:10.37,2013-03-23 18:59:00,
2013-03-23 13:04:00,14.1,9.1,30.21,East,87,11.5,11.5,80,0.00,CLR,,0.00,WeatherDisplay:10.37,2013-03-23 19:04:00,
2013-03-23 13:09:00,14.0,9.0,30.21,ENE,69,11.5,11.5,80,0.00,CLR,,0.00,WeatherDisplay:10.37,2013-03-23 19:09:00,
2013-03-23 13:14:00,13.8,8.8,30.21,East,97,11.5,11.5,80,0.00,CLR,,0.00,WeatherDisplay:10.37,2013-03-23 19:14:00,
2013-03-23 13:19:00,13.8,8.8,30.23,East,84,12.0,12.0,80,0.00,CLR,,0.00,WeatherDisplay:10.37,2013-03-23 19:19:00,
2013-03-23 13:24:00,14.1,8.8,30.23,East,93,11.5,11.5,79,0.00,CLR,,0.00,WeatherDisplay:10.37,2013-03-23 19:24:00,
2013-03-23 13:29:00,14.1,9.1,30.23,East,96,8.1,8.1,80,0.00,CLR,,0.00,WeatherDisplay:10.37,2013-03-23 19:29:00,
2013-03-23 13:34:00,14.0,8.7,30.23,East,87,8.1,8.1,79,0.00,CLR,,0.00,WeatherDisplay:10.37,2013-03-23 19:34:00,
2013-03-23 13:39:00,14.0,9.0,30.23,East,90,4.6,4.6,80,0.00,CLR,,0.00,WeatherDisplay:10.37,2013-03-23 19:39:00,
2013-03-23 13:44:00,14.3,9.3,30.23,ENE,62,5.8,5.8,80,0.00,CLR,,0.00,WeatherDisplay:10.37,2013-03-23 19:44:00,
2013-03-23 13:49:00,14.4,9.1,30.24,East,84,5.8,5.8,79,0.00,CLR,,0.00,WeatherDisplay:10.37,2013-03-23 19:49:00,
2013-03-23 13:54:00,14.6,9.6,30.24,East,97,5.0,5.0,80,0.00,CLR,,0.00,WeatherDisplay:10.37,2013-03-23 19:54:00,
2013-03-23 13:59:00,14.8,9.7,30.24,East,87,5.0,5.0,80,0.00,CLR,,0.00,WeatherDisplay:10.37,2013-03-23 19:59:00,
2013-03-23 14:04:00,14.8,9.5,30.22,ESE,112,3.5,3.5,79,0.00,CLR,,0.00,WeatherDisplay:10.37,2013-03-23 20:04:00,
2013-03-23 14:09:00,14.8,9.7,30.22,ESE,112,6.9,6.9,80,0.00,CLR,,0.00,WeatherDisplay:10.37,2013-03-23 20:09:00,
2013-03-23 14:14:00,15.1,10.0,30.22,ENE,73,8.1,8.1,80,0.00,CLR,,0.00,WeatherDisplay:10.37,2013-03-23 20:14:00,
2013-03-23 14:19:00,15.1,9.8,30.23,ENE,63,8.1,8.1,79,0.00,CLR,,0.00,WeatherDisplay:10.37,2013-03-23 20:19:00,
2013-03-23 14:24:00,15.2,9.9,30.23,East,87,5.0,5.0,79,0.00,CLR,,0.00,WeatherDisplay:10.37,2013-03-23 20:24:00,
2013-03-23 14:29:00,15.1,9.8,30.23,East,96,6.0,6.0,79,0.00,CLR,,0.00,WeatherDisplay:10.37,2013-03-23 20:29:00,
2013-03-23 14:34:00,15.1,9.8,30.23,ESE,105,4.6,4.6,79,0.00,CLR,,0.00,WeatherDisplay:10.37,2013-03-23 20:34:00,
2013-03-23 14:39:00,15.1,10.0,30.23,SE,128,4.6,4.6,80,0.00,CLR,,0.00,WeatherDisplay:10.37,2013-03-23 20:39:00,
2013-03-23 14:44:00,15.2,10.1,30.23,East,94,8.0,8.0,80,0.00,CLR,,0.00,WeatherDisplay:10.37,2013-03-23 20:44:00,
2013-03-23 14:49:00,15.1,9.8,30.23,East,83,8.1,8.1,79,0.00,CLR,,0.00,WeatherDisplay:10.37,2013-03-23 20:49:00,
2013-03-23 14:54:00,15.1,9.8,30.23,East,88,10.4,10.4,79,0.00,CLR,,0.00,WeatherDisplay:10.37,2013-03-23 20:54:00,
2013-03-23 14:59:00,14.9,9.8,30.23,ENE,77,11.5,11.5,80,0.00,CLR,,0.00,WeatherDisplay:10.37,2013-03-23 20:59:00,
2013-03-23 15:04:00,14.8,9.7,30.24,ENE,66,11.5,11.5,80,0.00,CLR,,0.00,WeatherDisplay:10.37,2013-03-23 21:04:00,
2013-03-23 15:09:00,14.4,9.1,30.24,East,83,8.1,8.1,79,0.00,CLR,,0.00,WeatherDisplay:10.37,2013-03-23 21:09:00,
2013-03-23 15:14:00,14.0,9.0,30.24,ENE,76,10.0,10.0,80,0.00,CLR,,0.00,WeatherDisplay:10.37,2013-03-23 21:14:00,
2013-03-23 15:19:00,14.1,9.1,30.24,East,91,8.1,8.1,80,0.00,CLR,,0.00,WeatherDisplay:10.37,2013-03-23 21:19:00,
2013-03-23 15:24:00,14.1,9.1,30.24,East,88,8.0,8.0,80,0.00,CLR,,0.00,WeatherDisplay:10.37,2013-03-23 21:24:00,
2013-03-23 15:29:00,14.1,9.1,30.24,East,93,8.0,8.0,80,0.00,CLR,,0.00,WeatherDisplay:10.37,2013-03-23 21:29:00,
2013-03-23 15:34:00,14.0,9.0,30.24,East,93,10.4,10.4,80,0.00,CLR,,0.00,WeatherDisplay:10.37,2013-03-23 21:34:00,
2013-03-23 15:39:00,13.8,8.5,30.24,East,88,10.0,10.0,79,0.00,CLR,,0.00,WeatherDisplay:10.37,2013-03-23 21:39:00,
2013-03-23 15:44:00,13.8,8.5,30.24,East,88,10.4,10.4,79,0.00,CLR,,0.00,WeatherDisplay:10.37,2013-03-23 21:44:00,
2013-03-23 15:49:00,13.8,8.5,30.25,East,86,10.4,10.4,79,0.00,CLR,,0.00,WeatherDisplay:10.37,2013-03-23 21:49:00,
2013-03-23 15:54:00,14.0,8.7,30.25,ENE,77,12.7,12.7,79,0.00,CLR,,0.00,WeatherDisplay:10.37,2013-03-23 21:54:00,
2013-03-23 15:59:00,14.0,8.7,30.25,ENE,77,8.1,8.1,79,0.00,CLR,,0.00,WeatherDisplay:10.37,2013-03-23 21:59:00,
2013-03-23 16:04:00,13.8,8.2,30.25,East,96,8.0,8.0,78,0.00,CLR,,0.00,WeatherDisplay:10.37,2013-03-23 22:04:00,
2013-03-23 16:09:00,13.8,8.5,30.25,East,101,11.0,11.0,79,0.00,CLR,,0.00,WeatherDisplay:10.37,2013-03-23 22:09:00,
2013-03-23 16:14:00,13.8,8.5,30.25,East,94,8.0,8.0,79,0.00,CLR,,0.00,WeatherDisplay:10.37,2013-03-23 22:14:00,
2013-03-23 16:19:00,13.8,8.2,30.25,East,80,10.0,10.0,78,0.00,CLR,,0.00,WeatherDisplay:10.37,2013-03-23 22:19:00,
2013-03-23 16:24:00,13.8,8.2,30.25,East,84,11.5,11.5,78,0.00,CLR,,0.00,WeatherDisplay:10.37,2013-03-23 22:24:00,
2013-03-23 16:29:00,13.6,8.0,30.25,ESE,107,8.1,8.1,78,0.00,CLR,,0.00,WeatherDisplay:10.37,2013-03-23 22:29:00,
2013-03-23 16:34:00,13.6,8.3,30.26,East,93,11.5,11.5,79,0.00,CLR,,0.00,WeatherDisplay:10.37,2013-03-23 22:34:00,
2013-03-23 16:39:00,13.6,8.0,30.26,East,90,12.7,12.7,78,0.00,CLR,,0.00,WeatherDisplay:10.37,2013-03-23 22:39:00,
2013-03-23 16:44:00,13.6,8.0,30.26,SE,128,10.4,10.4,78,0.00,CLR,,0.00,WeatherDisplay:10.37,2013-03-23 22:44:00,
2013-03-23 16:49:00,13.6,7.7,30.26,East,96,11.5,11.5,77,0.00,CLR,,0.00,WeatherDisplay:10.37,2013-03-23 22:49:00,
2013-03-23 16:54:00,13.5,7.9,30.26,East,96,13.0,13.0,78,0.00,CLR,,0.00,WeatherDisplay:10.37,2013-03-23 22:54:00,
2013-03-23 16:59:00,13.5,7.9,30.26,East,90,8.1,8.1,78,0.00,CLR,,0.00,WeatherDisplay:10.37,2013-03-23 22:59:00,
2013-03-23 17:04:00,13.5,7.6,30.27,East,96,4.6,4.6,77,0.00,CLR,,0.00,WeatherDisplay:10.37,2013-03-23 23:04:00,
2013-03-23 17:09:00,13.3,7.4,30.27,ESE,110,7.0,7.0,77,0.00,CLR,,0.00,WeatherDisplay:10.37,2013-03-23 23:09:00,
2013-03-23 17:14:00,13.3,7.4,30.27,East,80,5.8,5.8,77,0.00,CLR,,0.00,WeatherDisplay:10.37,2013-03-23 23:14:00,
2013-03-23 17:19:00,13.5,7.3,30.29,East,88,10.4,10.4,76,0.00,CLR,,0.00,WeatherDisplay:10.37,2013-03-23 23:19:00,
2013-03-23 17:24:00,13.6,7.7,30.29,ENE,74,10.4,10.4,77,0.00,CLR,,0.00,WeatherDisplay:10.37,2013-03-23 23:24:00,
2013-03-23 17:29:00,13.6,7.4,30.29,East,94,11.5,11.5,76,0.00,CLR,,0.00,WeatherDisplay:10.37,2013-03-23 23:29:00,
2013-03-23 17:34:00,13.5,7.3,30.30,East,86,6.9,6.9,76,0.00,CLR,,0.00,WeatherDisplay:10.37,2013-03-23 23:34:00,
2013-03-23 17:39:00,13.5,7.6,30.30,East,87,6.0,6.0,77,0.00,CLR,,0.00,WeatherDisplay:10.37,2013-03-23 23:39:00,
2013-03-23 17:44:00,13.5,7.6,30.30,East,79,8.1,8.1,77,0.00,CLR,,0.00,WeatherDisplay:10.37,2013-03-23 23:44:00,
2013-03-23 17:49:00,13.5,7.6,30.30,East,84,7.0,7.0,77,0.00,CLR,,0.00,WeatherDisplay:10.37,2013-03-23 23:49:00,
2013-03-23 17:54:00,13.5,7.6,30.30,ENE,66,10.4,10.4,77,0.00,CLR,,0.00,WeatherDisplay:10.37,2013-03-23 23:54:00,
2013-03-23 17:59:00,13.3,7.4,30.30,East,80,5.8,5.8,77,0.00,CLR,,0.00,WeatherDisplay:10.37,2013-03-23 23:59:00,
2013-03-23 18:04:00,13.1,7.2,30.31,ESE,115,6.9,6.9,77,0.00,CLR,,0.00,WeatherDisplay:10.37,2013-03-24 00:04:00,
2013-03-23 18:09:00,12.9,7.0,30.31,East,100,5.8,5.8,77,0.00,CLR,,0.00,WeatherDisplay:10.37,2013-03-24 00:09:00,
2013-03-23 18:14:00,12.9,6.8,30.31,East,86,5.8,5.8,76,0.00,CLR,,0.00,WeatherDisplay:10.37,2013-03-24 00:14:00,
2013-03-23 18:19:00,12.9,7.0,30.32,ENE,72,3.5,3.5,77,0.00,CLR,,0.00,WeatherDisplay:10.37,2013-03-24 00:19:00,
2013-03-23 18:24:00,12.9,7.3,30.32,East,79,6.0,6.0,78,0.00,CLR,,0.00,WeatherDisplay:10.37,2013-03-24 00:24:00,
2013-03-23 18:29:00,12.9,7.0,30.32,ENE,73,5.8,5.8,77,0.00,CLR,,0.00,WeatherDisplay:10.37,2013-03-24 00:29:00,
2013-03-23 18:34:00,12.9,7.0,30.32,ENE,74,5.8,5.8,77,0.00,CLR,,0.00,WeatherDisplay:10.37,2013-03-24 00:34:00,
2013-03-23 18:39:00,12.8,7.2,30.32,ENE,66,2.3,2.3,78,0.00,CLR,,0.00,WeatherDisplay:10.37,2013-03-24 00:39:00,
2013-03-23 18:44:00,12.6,7.0,30.32,ESE,111,3.5,3.5,78,0.00,CLR,,0.00,WeatherDisplay:10.37,2013-03-24 00:44:00,
2013-03-23 18:49:00,12.4,6.8,30.33,ESE,107,3.0,3.0,78,0.00,CLR,,0.00,WeatherDisplay:10.37,2013-03-24 00:49:00,
2013-03-23 18:54:00,12.4,7.1,30.33,East,100,4.6,4.6,79,0.00,CLR,,0.00,WeatherDisplay:10.37,2013-03-24 00:54:00,
2013-03-23 18:59:00,12.3,6.7,30.33,ENE,70,5.8,5.8,78,0.00,CLR,,0.00,WeatherDisplay:10.37,2013-03-24 00:59:00,
2013-03-23 19:04:00,12.1,6.8,30.36,ENE,73,3.5,3.5,79,0.00,CLR,,0.00,WeatherDisplay:10.37,2013-03-24 01:04:00,
2013-03-23 19:09:00,11.9,6.6,30.36,ENE,74,4.6,4.6,79,0.00,CLR,,0.00,WeatherDisplay:10.37,2013-03-24 01:09:00,
2013-03-23 19:14:00,11.9,6.6,30.36,East,91,4.6,4.6,79,0.00,CLR,,0.00,WeatherDisplay:10.37,2013-03-24 01:14:00,
2013-03-23 19:19:00,11.7,6.4,30.36,East,86,6.9,6.9,79,0.00,CLR,,0.00,WeatherDisplay:10.37,2013-03-24 01:19:00,
2013-03-23 19:24:00,11.6,6.3,30.36,ENE,73,4.6,4.6,79,0.00,CLR,,0.00,WeatherDisplay:10.37,2013-03-24 01:24:00,
2013-03-23 19:29:00,11.4,6.2,30.36,ENE,67,5.8,5.8,79,0.00,CLR,,0.00,WeatherDisplay:10.37,2013-03-24 01:29:00,
2013-03-23 19:34:00,11.2,6.0,30.38,ENE,70,4.6,4.6,79,0.00,CLR,,0.00,WeatherDisplay:10.37,2013-03-24 01:34:00,
2013-03-23 19:39:00,10.9,5.7,30.38,ENE,59,3.5,3.5,79,0.00,CLR,,0.00,WeatherDisplay:10.37,2013-03-24 01:39:00,
2013-03-23 19:44:00,10.7,5.5,30.38,North,11,5.0,5.0,79,0.00,CLR,,0.00,WeatherDisplay:10.37,2013-03-24 01:44:00,
2013-03-23 19:49:00,10.5,5.3,30.39,North,351,4.6,4.6,79,0.00,CLR,,0.00,WeatherDisplay:10.37,2013-03-24 01:49:00,
2013-03-23 19:54:00,10.4,5.2,30.39,North,355,4.6,4.6,79,0.00,CLR,,0.00,WeatherDisplay:10.37,2013-03-24 01:54:00,
2013-03-23 19:59:00,10.2,5.0,30.39,North,355,3.5,3.5,79,0.00,CLR,,0.00,WeatherDisplay:10.37,2013-03-24 01:59:00,
2013-03-23 20:04:00,10.0,4.8,30.40,NE,36,3.5,3.5,79,0.00,CLR,,0.00,WeatherDisplay:10.37,2013-03-24 02:04:00,
2013-03-23 20:09:00,9.9,4.7,30.40,ENE,69,2.3,2.3,79,0.00,CLR,,0.00,WeatherDisplay:10.37,2013-03-24 02:09:00,
2013-03-23 20:14:00,9.7,4.5,30.40,NNE,29,3.5,3.5,79,0.00,CLR,,0.00,WeatherDisplay:10.37,2013-03-24 02:14:00,
2013-03-23 20:19:00,9.5,4.3,30.40,NNE,29,3.5,3.5,79,0.00,CLR,,0.00,WeatherDisplay:10.37,2013-03-24 02:19:00,
2013-03-23 20:24:00,9.3,4.1,30.40,NNE,29,3.5,3.5,79,0.00,CLR,,0.00,WeatherDisplay:10.37,2013-03-24 02:24:00,
2013-03-23 20:29:00,9.2,4.0,30.40,NNE,29,2.3,2.3,79,0.00,CLR,,0.00,WeatherDisplay:10.37,2013-03-24 02:29:00,
2013-03-23 20:34:00,8.8,3.6,30.42,NNE,29,2.3,2.3,79,0.00,CLR,,0.00,WeatherDisplay:10.37,2013-03-24 02:34:00,
2013-03-23 20:39:00,8.6,3.4,30.42,NNE,29,2.3,2.3,79,0.00,CLR,,0.00,WeatherDisplay:10.37,2013-03-24 02:39:00,
2013-03-23 20:44:00,8.3,2.9,30.42,NNE,29,2.3,2.3,78,0.00,CLR,,0.00,WeatherDisplay:10.37,2013-03-24 02:44:00,
2013-03-23 20:49:00,7.7,2.3,30.43,NNE,29,2.3,2.3,78,0.00,CLR,,0.00,WeatherDisplay:10.37,2013-03-24 02:49:00,
2013-03-23 20:54:00,7.4,2.0,30.43,NNE,29,0.0,0.0,78,0.00,CLR,,0.00,WeatherDisplay:10.37,2013-03-24 02:54:00,
2013-03-23 20:59:00,7.0,1.6,30.43,NNE,29,2.3,2.3,78,0.00,CLR,,0.00,WeatherDisplay:10.37,2013-03-24 02:59:00,
2013-03-23 21:04:00,6.9,1.5,30.45,NNE,29,0.0,0.0,78,0.00,CLR,,0.00,WeatherDisplay:10.37,2013-03-24 03:04:00,
2013-03-23 21:09:00,6.5,1.1,30.45,NNE,29,0.0,0.0,78,0.00,CLR,,0.00,WeatherDisplay:10.37,2013-03-24 03:09:00,
2013-03-23 21:14:00,6.1,0.7,30.45,NNE,29,0.0,0.0,78,0.00,CLR,,0.00,WeatherDisplay:10.37,2013-03-24 03:14:00,
2013-03-23 21:19:00,5.8,0.4,30.46,NNE,29,1.2,0.0,78,0.00,CLR,,0.00,WeatherDisplay:10.37,2013-03-24 03:19:00,
2013-03-23 21:24:00,5.6,0.2,30.46,NNE,29,0.0,0.0,78,0.00,CLR,,0.00,WeatherDisplay:10.37,2013-03-24 03:24:00,
2013-03-23 21:29:00,5.0,-0.4,30.46,NNE,29,0.0,0.0,78,0.00,CLR,,0.00,WeatherDisplay:10.37,2013-03-24 03:29:00,
2013-03-23 21:34:00,4.8,-0.6,30.48,NNE,29,1.2,1.2,78,0.00,CLR,,0.00,WeatherDisplay:10.37,2013-03-24 03:34:00,
2013-03-23 21:39:00,4.5,-0.8,30.48,NNE,29,0.0,0.0,78,0.00,CLR,,0.00,WeatherDisplay:10.37,2013-03-24 03:39:00,
2013-03-23 21:44:00,4.3,-1.0,30.48,NNE,29,0.0,0.0,78,0.00,CLR,,0.00,WeatherDisplay:10.37,2013-03-24 03:44:00,
2013-03-23 21:49:00,3.9,-1.4,30.48,NNE,29,0.0,0.0,78,0.00,CLR,,0.00,WeatherDisplay:10.37,2013-03-24 03:49:00,
2013-03-23 21:54:00,3.7,-1.6,30.48,NNE,29,0.0,0.0,78,0.00,CLR,,0.00,WeatherDisplay:10.37,2013-03-24 03:54:00,
2013-03-23 22:00:00,3.4,-1.9,30.48,NNE,29,1.0,0.0,78,0.00,CLR,,0.00,WeatherDisplay:10.37,2013-03-24 04:00:00,
2013-03-23 22:01:00,3.4,-2.2,30.50,NNE,29,1.2,0.0,77,0.00,CLR,,0.00,WeatherDisplay:10.37,2013-03-24 04:01:00,
2013-03-23 22:02:00,3.4,-2.2,30.50,NNE,29,1.2,0.0,77,0.00,CLR,,0.00,WeatherDisplay:10.37,2013-03-24 04:02:00,
2013-03-23 22:07:00,3.2,-2.1,30.50,NNE,29,1.2,1.2,78,0.00,CLR,,0.00,WeatherDisplay:10.37,2013-03-24 04:07:00,
2013-03-23 22:12:00,3.0,-2.3,30.50,NNE,29,2.3,2.3,78,0.00,CLR,,0.00,WeatherDisplay:10.37,2013-03-24 04:12:00,
2013-03-23 22:17:00,2.8,-2.5,30.49,NNE,29,2.3,2.3,78,0.00,CLR,,0.00,WeatherDisplay:10.37,2013-03-24 04:17:00,
2013-03-23 22:22:00,2.6,-2.7,30.49,NNE,29,0.0,0.0,78,0.00,CLR,,0.00,WeatherDisplay:10.37,2013-03-24 04:22:00,
2013-03-23 22:27:00,2.4,-2.9,30.49,NNE,29,0.0,0.0,78,0.00,CLR,,0.00,WeatherDisplay:10.37,2013-03-24 04:27:00,
2013-03-23 22:32:00,2.4,-2.9,30.51,NNE,29,0.0,0.0,78,0.00,CLR,,0.00,WeatherDisplay:10.37,2013-03-24 04:32:00,
2013-03-23 22:37:00,2.2,-3.4,30.51,NNE,29,0.0,0.0,77,0.00,CLR,,0.00,WeatherDisplay:10.37,2013-03-24 04:37:00,
2013-03-23 22:42:00,2.0,-3.6,30.51,NNE,29,0.0,0.0,77,0.00,CLR,,0.00,WeatherDisplay:10.37,2013-03-24 04:42:00,
2013-03-23 22:47:00,1.8,-3.5,30.50,NNE,29,0.0,0.0,78,0.00,CLR,,0.00,WeatherDisplay:10.37,2013-03-24 04:47:00,
2013-03-23 22:52:00,1.8,-3.7,30.50,NNE,29,0.0,0.0,77,0.00,CLR,,0.00,WeatherDisplay:10.37,2013-03-24 04:52:00,
2013-03-23 22:57:00,1.7,-3.8,30.50,NNE,29,0.0,0.0,77,0.00,CLR,,0.00,WeatherDisplay:10.37,2013-03-24 04:57:00,
2013-03-23 23:02:00,1.7,-3.8,30.50,NNE,29,0.0,0.0,77,0.00,CLR,,0.00,WeatherDisplay:10.37,2013-03-24 05:02:00,
2013-03-23 23:07:00,1.3,-4.2,30.50,NNE,29,0.0,0.0,77,0.00,CLR,,0.00,WeatherDisplay:10.37,2013-03-24 05:07:00,
2013-03-23 23:12:00,1.1,-4.4,30.50,NNE,29,1.0,1.0,77,0.00,CLR,,0.00,WeatherDisplay:10.37,2013-03-24 05:12:00,
2013-03-23 23:17:00,1.1,-4.2,30.50,NNE,29,2.3,2.3,78,0.00,CLR,,0.00,WeatherDisplay:10.37,2013-03-24 05:17:00,
2013-03-23 23:22:00,1.3,-4.0,30.50,NNE,28,1.0,1.0,78,0.00,CLR,,0.00,WeatherDisplay:10.37,2013-03-24 05:22:00,
2013-03-23 23:27:00,1.1,-4.4,30.50,NNE,28,2.3,2.3,77,0.00,CLR,,0.00,WeatherDisplay:10.37,2013-03-24 05:27:00,
2013-03-23 23:32:00,0.9,-4.9,30.50,NNE,28,1.2,0.0,76,0.00,CLR,,0.00,WeatherDisplay:10.37,2013-03-24 05:32:00,
2013-03-23 23:37:00,0.5,-5.3,30.50,NNE,28,1.2,1.2,76,0.00,CLR,,0.00,WeatherDisplay:10.37,2013-03-24 05:37:00,
2013-03-23 23:42:00,0.1,-5.7,30.50,NNE,28,0.0,0.0,76,0.00,CLR,,0.00,WeatherDisplay:10.37,2013-03-24 05:42:00,
2013-03-23 23:47:00,-0.2,-6.2,30.49,NNE,28,0.0,0.0,75,0.00,CLR,,0.00,WeatherDisplay:10.37,2013-03-24 05:47:00,
2013-03-23 23:52:00,-0.6,-6.4,30.49,NNE,28,0.0,0.0,76,0.00,CLR,,0.00,WeatherDisplay:10.37,2013-03-24 05:52:00,
2013-03-23 23:57:00,-0.8,-6.5,30.49,NNE,28,0.0,0.0,76,0.00,CLR,,0.00,WeatherDisplay:10.37,2013-03-24 05:57:00,